Imperial, NE

3:33 PM MST on February 14, 2016 (GMT -0700)
Imperial Municipal

Weather History for KIML - December, 2011

Change the Weather History Date:

Wednesday, December 21, 2011

  Actual Average Record
Temperature  
Mean Temperature 37 °F 28 °F  
Max Temperature 47 °F 40 °F 68 °F (1900)
Min Temperature 26 °F 15 °F -20 °F (1924)
Degree Days  
Heating Degree Days 28 38  
Month to date heating degree days 771 758  
Cooling Degree Days 0 0  
Month to date cooling degree days 0 0  
Year to date cooling degree days 1096 963  
Moisture  
Dew Point 26 °F    
Average Humidity 71    
Maximum Humidity 92    
Minimum Humidity 49    
Precipitation  
Precipitation T in 0.02 in 0.45 in (1920)
Sea Level Pressure  
Sea Level Pressure 29.91 in    
Wind  
Wind Speed 14 mph (North)    
Max Wind Speed 22 mph    
Max Gust Speed 29 mph    
Visibility 8 miles    
Events Snow    
T = Trace of Precipitation, MM = Missing Value Source: NWS Daily Summary

Daily Weather History Graph

Daily Weather History Graph

Search for Another Location

Airport or City:

Trip Planner

Search our weather history database for the weather conditions in past years. The results will help you decide how hot, cold, wet, or windy it might be!

Date:

Astronomy

Dec. 21, 2011 Rise Set
Actual Time 7:06 AM MST 4:22 PM MST
Civil Twilight 6:35 AM MST 4:53 PM MST
Nautical Twilight 6:01 AM MST 5:28 PM MST
Astronomical Twilight 5:27 AM MST 6:01 PM MST
Moon 3:41 AM MST (12/21) 1:43 PM MST (12/21)
Length of Visible Light 10h 18m
Length of Day
9h 16m
Waning Crescent, 12% of the Moon is Illuminated
Dec 21
Waning Crescent
Dec 24
New
Dec 31
First Quarter
Jan 9
Full
Jan 16
Last Quarter

Hourly Weather History & Observations

Time (MST) Temp. Windchill Dew Point Humidity Pressure Visibility Wind Dir Wind Speed Gust Speed Precip Events Conditions
12:53 AM 28.0 °F 17.5 °F 19.0 °F 69% 29.77 in 10.0 mi WNW 12.7 mph - N/A   Clear
1:53 AM 28.0 °F 17.5 °F 19.0 °F 69% 29.77 in 10.0 mi WNW 12.7 mph - N/A   Clear
2:53 AM 28.0 °F 16.5 °F 19.0 °F 69% 29.76 in 10.0 mi NW 15.0 mph - N/A   Clear
3:53 AM 28.0 °F 17.0 °F 19.0 °F 69% 29.77 in 10.0 mi NW 13.8 mph - N/A   Clear
4:53 AM 28.0 °F 17.5 °F 19.0 °F 69% 29.78 in 10.0 mi NW 12.7 mph - N/A   Clear
5:53 AM 28.0 °F 17.0 °F 19.0 °F 69% 29.80 in 10.0 mi NW 13.8 mph - N/A   Clear
6:53 AM 26.1 °F 15.6 °F 18.0 °F 71% 29.82 in 10.0 mi WNW 11.5 mph - N/A   Clear
7:53 AM 27.0 °F 15.6 °F 19.0 °F 72% 29.83 in 10.0 mi WNW 13.8 mph - N/A   Clear
8:53 AM 34.0 °F 25.5 °F 21.0 °F 59% 29.84 in 10.0 mi NW 11.5 mph - N/A   Clear
9:53 AM 39.9 °F 31.8 °F 23.0 °F 51% 29.84 in 10.0 mi NNW 15.0 mph - N/A   Clear
10:53 AM 42.8 °F 35.8 °F 24.8 °F 49% 29.78 in 10.0 mi North 13.8 mph - N/A   Clear
11:53 AM 42.1 °F 34.9 °F 25.0 °F 51% 29.83 in 10.0 mi North 13.8 mph - N/A   Clear
12:53 PM 45.0 °F 37.6 °F 26.1 °F 48% 29.81 in 10.0 mi NNE 17.3 mph - N/A   Clear
1:53 PM 45.0 °F 38.5 °F 27.0 °F 49% 29.82 in 10.0 mi North 13.8 mph - N/A   Scattered Clouds
2:53 PM 43.0 °F 35.4 °F 27.0 °F 53% 29.84 in 10.0 mi North 16.1 mph - N/A   Mostly Cloudy
3:53 PM 39.9 °F 33.4 °F 26.1 °F 58% 29.87 in 10.0 mi North 10.4 mph - N/A   Overcast
4:53 PM 37.9 °F 32.1 °F 25.0 °F 60% 29.91 in 10.0 mi NNE 8.1 mph - N/A   Overcast
5:53 PM 36.0 °F 26.0 °F 27.0 °F 70% 29.95 in 10.0 mi NNE 17.3 mph - N/A   Overcast
6:53 PM 35.1 °F 25.5 °F 28.9 °F 78% 29.99 in 10.0 mi NNE 15.0 mph - N/A   Overcast
7:31 PM 33.8 °F 24.3 °F 30.2 °F 87% 29.94 in 10.0 mi NNE 13.8 mph - N/A   Overcast
7:53 PM 33.1 °F 23.0 °F 30.9 °F 92% 30.03 in 5.0 mi NNE 15.0 mph - 0.00 in Snow Light Snow
8:01 PM 33.8 °F 24.3 °F 30.2 °F 87% 29.95 in 4.0 mi NNE 13.8 mph - 0.00 in Snow Light Snow
8:16 PM 33.8 °F 23.5 °F 30.2 °F 87% 29.96 in 2.0 mi NNE 16.1 mph - 0.00 in Snow Light Snow
8:26 PM 33.8 °F 23.9 °F 30.2 °F 87% 29.96 in 2.0 mi NNE 15.0 mph - 0.00 in Snow Light Snow
8:43 PM 33.8 °F 22.8 °F 30.2 °F 87% 29.97 in 1.8 mi NNE 18.4 mph - 0.00 in Snow Light Snow
8:53 PM 33.1 °F 21.9 °F 30.9 °F 92% 30.04 in 1.8 mi NNE 18.4 mph - 0.00 in Snow Light Snow
9:01 PM 33.8 °F 23.2 °F 30.2 °F 87% 29.98 in 2.0 mi NNE 17.3 mph - 0.00 in Snow Light Snow
9:20 PM 32.0 °F 20.5 °F 30.2 °F 93% 29.99 in 1.8 mi NNE 18.4 mph 27.6 mph 0.00 in Snow Light Snow
9:29 PM 32.0 °F 20.8 °F 30.2 °F 93% 29.99 in 2.0 mi NNE 17.3 mph - 0.00 in Snow Light Snow
9:50 PM 32.0 °F 20.8 °F 30.2 °F 93% 30.00 in 3.0 mi NNE 17.3 mph - 0.00 in Snow Light Snow
9:53 PM 32.0 °F 20.8 °F 30.0 °F 92% 30.06 in 3.0 mi NNE 17.3 mph - 0.00 in Snow Light Snow
10:43 PM 32.0 °F 21.2 °F 28.4 °F 87% 30.03 in 10.0 mi NNE 16.1 mph - 0.00 in   Overcast
10:53 PM 32.0 °F 21.6 °F 28.9 °F 88% 30.09 in 10.0 mi NNE 15.0 mph 25.3 mph 0.00 in   Overcast
11:53 PM 30.9 °F 20.7 °F 28.9 °F 92% 30.13 in 10.0 mi NNE 13.8 mph - N/A   Overcast